Location: Newark
(35.7833°N, 139.8000°E)
Time: 06:11:43
(UTC+00:00)

OTV 5 (USA 277) - Pass Details

Date: 02 October 2019
Orbit: 310 x 324 km, 54.5° (Epoch: 17 October)

Event Time Altitude Azimuth Distance (km) Brightness Sun altitude
Exits shadow 18:58:49 40° 52° (NE) 491 ? -20.6°
Drops below altitude 10° 19:00:44 10° 46° (NE) 1,238 ? -20.2°
Sets 19:02:42 0° 45° (NE) 2,072 ? -19.8°
